Weather History for Lancaster, OH

Change the Weather History Date:

Saturday, April 12, 2014

  Actual Average Record
Temperature  
Mean Temperature 56 °F -  
Max Temperature 75 °F 60 °F 82 °F (1977)
Min Temperature 36 °F 34 °F 19 °F (1976)
Degree Days  
Heating Degree Days 10    
Growing Degree Days 6 (Base 50)    
Moisture  
Dew Point 43 °F    
Average Humidity 63    
Maximum Humidity 93    
Minimum Humidity 32    
Precipitation  
Precipitation 0.00 in - - ()
Sea Level Pressure  
Sea Level Pressure 30.07 in    
Wind  
Wind Speed 4 mph (South)    
Max Wind Speed 14 mph    
Max Gust Speed 22 mph    
Visibility 10 miles    
Events      
Averages and records for this station are not official NWS values.
T = Trace of Precipitation, MM = Missing Value Source: NWS Daily Summary

Daily Weather History Graph

Daily Weather History Graph

Search for Another Location

Airport:

Trip Planner

Search our weather history database for the weather conditions in past years. The results will help you decide how hot, cold, wet, or windy it might be!

Date:

Astronomy

Apr. 12, 2014 Rise Set
Actual Time 6:57 AM EDT 8:05 PM EDT
Civil Twilight 6:29 AM EDT 8:33 PM EDT
Nautical Twilight 5:56 AM EDT 9:06 PM EDT
Astronomical Twilight 5:22 AM EDT 9:41 PM EDT
Moon 5:43 PM EDT (4/12) 5:23 AM EDT (4/12)
Length of Visible Light 14h 03m
Length of Day
13h 08m
Waxing Gibbous, 93% of the Moon is Illuminated
Apr 12
Waxing Gibbous
Apr 15
Full
Apr 22
Last Quarter
Apr 29
New
May 6
First Quarter

Hourly Weather History & Observations

Time (EDT) Temp. Windchill Dew Point Humidity Pressure Visibility Wind Dir Wind Speed Gust Speed Precip Events Conditions
12:53 AM 44.1 °F - 39.9 °F 85% 30.12 in 10.0 mi Calm Calm - N/A   Clear
1:53 AM 42.1 °F - 39.0 °F 89% 30.12 in 10.0 mi Calm Calm - N/A   Clear
2:53 AM 39.9 °F 37.8 °F 37.0 °F 89% 30.12 in 10.0 mi South 3.5 mph - N/A   Clear
3:53 AM 39.0 °F - 37.0 °F 93% 30.12 in 9.0 mi Calm Calm - N/A   Clear
4:53 AM 37.9 °F - 36.0 °F 93% 30.14 in 9.0 mi Calm Calm - N/A   Clear
5:53 AM 37.0 °F - 35.1 °F 93% 30.16 in 10.0 mi Calm Calm - N/A   Clear
6:53 AM 36.0 °F - 34.0 °F 93% 30.17 in 7.0 mi Calm Calm - N/A   Clear
7:53 AM 39.9 °F - 37.9 °F 93% 30.19 in 8.0 mi Calm Calm - N/A   Clear
8:53 AM 50.0 °F - 44.1 °F 80% 30.19 in 10.0 mi SSE 4.6 mph - N/A   Clear
9:53 AM 61.0 °F - 46.0 °F 58% 30.19 in 10.0 mi SSE 10.4 mph - N/A   Clear
10:53 AM 64.9 °F - 41.0 °F 42% 30.17 in 10.0 mi South 9.2 mph - N/A   Clear
11:53 AM 68.0 °F - 39.0 °F 35% 30.15 in 10.0 mi SE 12.7 mph - N/A   Clear
12:53 PM 71.1 °F - 39.9 °F 32% 30.12 in 10.0 mi South 8.1 mph - N/A   Clear
1:53 PM 73.0 °F - 45.0 °F 37% 30.09 in 10.0 mi South 12.7 mph 20.7 mph N/A   Clear
2:53 PM 73.9 °F - 45.0 °F 35% 30.06 in 10.0 mi SSW 12.7 mph 21.9 mph N/A   Clear
3:53 PM 75.0 °F - 48.0 °F 38% 30.03 in 10.0 mi SSW 9.2 mph 21.9 mph N/A   Clear
4:53 PM 75.0 °F - 48.9 °F 40% 30.00 in 10.0 mi SSW 13.8 mph 21.9 mph N/A   Clear
5:53 PM 75.9 °F - 48.9 °F 38% 29.99 in 10.0 mi SSW 13.8 mph - N/A   Clear
6:53 PM 73.9 °F - 48.9 °F 41% 29.96 in 10.0 mi South 11.5 mph - N/A   Clear
7:53 PM 70.0 °F - 48.9 °F 47% 29.95 in 10.0 mi South 4.6 mph - N/A   Clear
8:53 PM 68.0 °F - 48.0 °F 49% 29.93 in 10.0 mi South 5.8 mph - N/A   Clear
9:53 PM 62.1 °F - 48.0 °F 60% 29.92 in 10.0 mi Calm Calm - N/A   Clear
10:53 PM 55.9 °F - 48.0 °F 75% 29.92 in 10.0 mi ESE 3.5 mph - N/A   Clear
11:53 PM 54.0 °F - 46.9 °F 77% 29.91 in 10.0 mi Calm Calm - N/A   Clear